Home   Weather   San Jose   Past weeks

Flag for Costa Rica Past Weather in San Jose, Costa Rica — Yesterday and Last 2 Weeks

Now
70 °F

Clear.


Feels Like: 70 °F
Forecast: 57 / 81 °F
Wind: 12 mph from Southeast

Location: Juan Santamaria

Current Time: Feb 26, 2017 at 10:49:05 pm

Latest Report: Feb 26, 2017 at 10:00 pm


Visibility: 10 mi

Pressure: 30.06 "Hg (26.27 "Hg at 1161m altitude)

Humidity: 60%

Dew Point: 55 °F

Location of San JoseLocation

Past Weather in San Jose — Graph

°F

San Jose Temperature Yesterday

Maximum temperature yesterday: 86 °F (at 2:00 pm)
Minimum temperature yesterday: 63 °F (at 3:00 am)
Average temperature yesterday: 74 °F

High & Low Weather Summary for the Past Weeks

 TemperatureHumidityPressure
High86 °F (Feb 15, 1:00 pm)100% (Feb 23, 12:25 am)30.13 "Hg (Feb 23, 12:25 am)
Low61 °F (Feb 15, 5:00 am)28% (Feb 17, 9:00 am)29.91 "Hg (Feb 23, 3:00 pm)
Average73 °F65%30.02 "Hg
* Reported Feb 11 9:00 pm — Feb 26 9:00 pm, San Jose, Weather by CustomWeather, © 2017

Note: Actual official high and low records may vary slightly from our data, if they occured in-between our weather recording intervals... More about our weather records

Advertising

San Jose Weather History for the Previous 24 Hours

Scroll right to see more
 ConditionsComfort  
Time TempWeatherWind HumidityBarometerVisibility
9:00 pm
Sun, Feb 26
72 °FClear.12 mph57%30.04 "Hg10 mi
8:00 pm72 °FClear.13 mph57%30.02 "Hg10 mi
7:00 pm73 °FClear.13 mph53%30.00 "Hg10 mi
6:00 pm75 °FPassing clouds.13 mph47%29.98 "HgN/A
5:00 pm79 °FPassing clouds.13 mph39%29.97 "HgN/A
4:00 pm82 °FPassing clouds.13 mph40%29.95 "HgN/A
3:00 pm86 °FPassing clouds.12 mph35%29.93 "HgN/A
2:00 pm86 °FScattered clouds.12 mph33%29.96 "HgN/A
1:00 pm86 °FScattered clouds.15 mph35%29.99 "HgN/A
12:00 pm86 °FPartly sunny.12 mph35%30.02 "HgN/A
11:00 am84 °FScattered clouds.12 mph37%30.04 "HgN/A
10:00 am82 °FScattered clouds.14 mph45%30.07 "HgN/A
9:00 am81 °FSunny.14 mph51%30.07 "Hg10 mi
8:00 am77 °FSunny.5 mph57%30.07 "Hg10 mi
7:00 am70 °FSunny.6 mph69%30.05 "Hg10 mi
6:00 am66 °FSunny.6 mph73%30.03 "Hg10 mi
5:00 am68 °FClear.5 mph73%30.01 "Hg10 mi
4:00 am66 °FClear.9 mph68%30.00 "Hg10 mi
3:00 am68 °FSmoke.7 mph78%30.00 "HgN/A
2:00 am68 °FClear.9 mph78%30.00 "Hg10 mi
1:00 am68 °FClear.8 mph78%30.01 "Hg10 mi
12:00 am68 °FClear.6 mph78%30.03 "Hg10 mi
11:00 pm
Sat, Feb 25
70 °FClear.2 mph83%30.04 "Hg10 mi
10:00 pm68 °FPassing clouds.2 mph88%30.04 "HgN/A
Weather by CustomWeather, © 2017

See weather overviewHow to use our weather pages